CW5709 Weather Reports


Display with metric or nautical units.
time (UTC)temp
F
wind
direction
speed
MPH
gust
MPH
rain 1hr
in
rain 24hr
in
rain mn
in
humidity
%
barometer
mb
20260506221516 69 0.0 0.0 0.00 0.00 0.00 53 1020.9
20260506220033 69 0.0 0.0 0.00 0.00 0.00 53 1021.0
20260506214508 69 0.0 0.0 0.00 0.00 0.00 54 1021.0
20260506213009 69 0.0 0.0 0.00 0.00 0.00 53 1021.0
20260506211515 68 0.0 0.0 0.00 0.00 0.00 56 1021.1
20260506210022 68 0.0 0.0 0.00 0.00 0.00 56 1021.3
20260506204525 68 0.0 0.0 0.00 0.00 0.00 56 1021.4
20260506203019 68 0.0 0.0 0.00 0.00 0.00 56 1021.5
20260506201514 68 0.0 0.0 0.00 0.00 0.00 57 1021.4
20260506200020 68 0.0 0.0 0.00 0.00 0.00 58 1021.5
20260506194523 66 0.0 0.0 0.00 0.00 0.00 63 1021.6
20260506193026 64 0.0 0.0 0.00 0.00 0.00 64 1021.7
20260506191510 62 0.0 0.0 0.00 0.00 0.00 66 1022.0
20260506190023 62 0.0 0.0 0.00 0.00 0.00 66 1022.0
20260506184522 62 0.0 0.0 0.00 0.00 0.00 68 1022.0
20260506183025 62 0.0 0.0 0.00 0.00 0.00 69 1021.8
20260506181526 61 0.0 0.0 0.00 0.00 0.00 71 1021.8
20260506180016 60 0.0 0.0 0.00 0.00 0.00 73 1021.8
20260506174516 59 0.0 0.0 0.00 0.00 0.00 75 1021.9
20260506173025 59 0.0 0.0 0.00 0.00 0.00 77 1021.7
20260506171524 58 0.0 0.0 0.00 0.00 0.00 77 1021.8
20260506170025 58 0.0 0.0 0.00 0.00 0.00 77 1021.8
20260506164518 58 0.0 0.0 0.00 0.00 0.00 77 1021.7
20260506163019 57 0.0 0.0 0.00 0.00 0.00 78 1021.7
20260506161522 56 0.0 0.0 0.00 0.00 0.00 79 1021.5
20260506160027 55 0.0 0.0 0.00 0.00 0.00 83 1021.4
20260506154528 54 0.0 0.0 0.00 0.00 0.00 84 1021.6
20260506153019 54 0.0 0.0 0.00 0.00 0.00 85 1021.7
20260506151523 53 0.0 0.0 0.00 0.00 0.00 86 1021.8
20260506150025 53 0.0 0.0 0.00 0.00 0.00 87 1021.8
20260506144526 52 0.0 0.0 0.00 0.00 0.00 89 1021.5
20260506143030 51 0.0 0.0 0.00 0.00 0.00 90 1021.1
20260506141523 50 0.0 0.0 0.00 0.00 0.00 90 1021.0
20260506140024 50 0.0 0.0 0.00 0.00 0.00 89 1020.9
20260506134511 50 0.0 0.0 0.00 0.00 0.00 88 1020.8
20260506133017 50 0.0 0.0 0.00 0.00 0.00 88 1020.8
20260506131524 50 0.0 0.0 0.00 0.00 0.00 88 1020.9
20260506130024 51 0.0 0.0 0.00 0.00 0.00 88 1020.6
20260506124507 52 0.0 0.0 0.00 0.00 0.00 88 1020.5
20260506123013 52 0.0 0.0 0.00 0.00 0.00 89 1020.4
20260506121520 52 0.0 0.0 0.00 0.00 0.00 89 1020.3
20260506120028 53 0.0 0.0 0.00 0.00 0.00 90 1020.2
20260506114523 52 0.0 0.0 0.00 0.00 0.00 90 1020.0
20260506113012 52 0.0 0.0 0.00 0.00 0.00 90 1019.8
20260506111512 52 0.0 0.0 0.00 0.00 0.00 90 1019.6
20260506110021 51 0.0 0.0 0.00 0.00 0.00 89 1019.4
20260506104527 51 0.0 0.0 0.00 0.00 0.00 89 1019.1
20260506103025 51 0.0 0.0 0.00 0.00 0.00 89 1018.9
20260506101512 50 0.0 0.0 0.00 0.00 0.00 88 1018.9
20260506100016 50 0.0 0.0 0.00 0.00 0.00 88 1018.8
20260506094520 51 0.0 0.0 0.00 0.00 0.00 87 1018.7
20260506093028 51 0.0 0.0 0.00 0.00 0.00 87 1018.7
20260506091527 51 0.0 0.0 0.00 0.00 0.00 87 1018.5
20260506090021 51 0.0 0.0 0.00 0.00 0.00 87 1018.4
20260506084532 52 0.0 0.0 0.00 0.00 0.00 86 1018.3
20260506083018 52 0.0 0.0 0.00 0.00 0.00 86 1018.2
20260506081524 52 0.0 0.0 0.00 0.00 0.00 85 1018.2
20260506073022 53 0.0 0.0 0.00 0.00 0.00 86 1018.2
20260506071528 54 0.0 0.0 0.00 0.00 0.00 85 1018.0
20260506061525 55 0.0 0.0 0.00 0.00 0.00 83 1017.7
20260506044537 58 0.0 0.0 0.00 0.00 0.00 76 1017.3
20260506043021 59 0.0 0.0 0.00 0.00 0.00 74 1017.1
20260506041517 60 0.0 0.0 0.00 0.00 0.00 71 1016.9
20260506040029 61 0.0 0.0 0.00 0.00 0.00 69 1016.9
20260506034506 63 0.0 0.0 0.00 0.00 0.00 69 1016.4
20260506033008 64 0.0 0.0 0.00 0.00 0.00 68 1016.3
20260506031517 65 0.0 0.0 0.00 0.00 0.00 66 1016.1
20260506030022 65 0.0 0.0 0.00 0.00 0.00 66 1015.9
20260506024527 65 0.0 0.0 0.00 0.00 0.00 66 1015.8
20260506023015 66 0.0 0.0 0.00 0.00 0.00 65 1015.7
20260506021512 66 0.0 0.0 0.00 0.00 0.00 65 1015.7
20260506020013 67 0.0 0.0 0.00 0.00 0.00 64 1015.7
20260506014519 67 0.0 0.0 0.00 0.00 0.00 63 1015.5
20260506013024 67 0.0 0.0 0.00 0.00 0.00 63 1015.4
20260506011528 67 0.0 0.0 0.00 0.00 0.00 63 1015.5
20260506010012 67 0.0 0.0 0.00 0.00 0.00 63 1015.4
20260506003021 67 0.0 0.0 0.00 0.00 0.00 62 1015.5
20260506001525 67 0.0 0.0 0.00 0.00 0.00 61 1015.5
20260506000012 68 0.0 0.0 0.00 0.00 0.00 61 1015.6
20260505234518 68 0.0 0.0 0.00 0.00 0.00 61 1015.7
20260505233027 68 0.0 0.0 0.00 0.00 0.00 59 1015.8
20260505231536 68 0.0 0.0 0.00 0.00 0.00 59 1015.9
20260505224511 70 0.0 0.0 0.00 0.00 0.00 56 1016.1
20260505223020 71 0.0 0.0 0.00 0.00 0.00 55 1016.1